Weather History for Robstown, TX

Change the Weather History Date:

Sunday, February 17, 2013

  Actual Average (KCRP) Record (KCRP)
Temperature  
Mean Temperature 56 °F 61 °F  
Max Temperature 73 °F 71 °F 91 °F (1982)
Min Temperature 39 °F 51 °F 24 °F (1895)
Degree Days  
Heating Degree Days 9 6  
Month to date heating degree days 118  
Since 1 July heating degree days 745  
Cooling Degree Days 0 2  
Month to date cooling degree days 27  
Year to date cooling degree days 57  
Growing Degree Days 6 (Base 50)    
Moisture  
Dew Point 45 °F    
Average Humidity 62    
Maximum Humidity 81    
Minimum Humidity 36    
Precipitation  
Precipitation 0.00 in 0.08 in 0.55 in (1995)
Month to date precipitation 1.13  
Year to date precipitation 2.67  
Snow  
Snow 0.00 in - - ()
Month to date snowfall  
Since 1 July snowfall  
Snow Depth -    
Sea Level Pressure  
Sea Level Pressure 30.15 in    
Wind  
Wind Speed 11 mph (SSE)    
Max Wind Speed 28 mph    
Max Gust Speed 34 mph    
Visibility 10 miles    
Events      
T = Trace of Precipitation, MM = Missing Value Source: NWS Daily Summary

Daily Weather History Graph

Daily Weather History Graph

Search for Another Location

Airport:

Trip Planner

Search our weather history database for the weather conditions in past years. The results will help you decide how hot, cold, wet, or windy it might be!

Date:

Astronomy

Feb. 17, 2013 Rise Set
Actual Time 7:06 AM CST 6:23 PM CST
Civil Twilight 6:42 AM CST 6:47 PM CST
Nautical Twilight 6:14 AM CST 7:14 PM CST
Astronomical Twilight 5:47 AM CST 7:42 PM CST
Moon 11:40 AM CST (2/17) 12:41 AM CST (2/17)
Length of Visible Light 12h 05m
Length of Day
11h 17m
Waxing Crescent, 49% of the Moon is Illuminated
Feb 17
Waxing Crescent
Feb 17
First Quarter
Feb 25
Full
Mar 4
Last Quarter
Mar 11
New

Hourly Weather History & Observations

Time (CST) Temp. Windchill Dew Point Humidity Pressure Visibility Wind Dir Wind Speed Gust Speed Precip Events Conditions
12:15 AM 45.5 °F 42.5 °F 34.7 °F 66% 30.29 in 10.0 mi SSW 5.8 mph - N/A   Clear
12:35 AM 44.6 °F 40.7 °F 34.3 °F 67% 30.28 in 10.0 mi SSW 6.9 mph - N/A   Clear
12:55 AM 44.4 °F 40.5 °F 34.2 °F 67% 30.28 in 10.0 mi SSW 6.9 mph - N/A   Clear
1:15 AM 44.1 °F 39.5 °F 34.2 °F 68% 30.27 in 10.0 mi SSW 8.1 mph - N/A   Clear
1:35 AM 45.1 °F 41.4 °F 35.1 °F 68% 30.27 in 10.0 mi South 6.9 mph - N/A   Clear
1:55 AM 44.8 °F 41.0 °F 34.9 °F 68% 30.26 in 10.0 mi SSW 6.9 mph - N/A   Clear
2:15 AM 44.4 °F 40.5 °F 35.1 °F 70% 30.25 in 10.0 mi SSW 6.9 mph - N/A   Clear
2:35 AM 44.2 °F 39.7 °F 35.1 °F 70% 30.24 in 10.0 mi SSW 8.1 mph - N/A   Clear
2:55 AM 43.2 °F 39.7 °F 34.7 °F 72% 30.24 in 10.0 mi South 5.8 mph - N/A   Clear
3:15 AM 42.3 °F 39.4 °F 34.7 °F 75% 30.23 in 10.0 mi South 4.6 mph - N/A   Clear
3:35 AM 41.9 °F 39.0 °F 34.2 °F 74% 30.23 in 10.0 mi South 4.6 mph - N/A   Clear
3:55 AM 41.4 °F 37.6 °F 33.6 °F 74% 30.23 in 10.0 mi SSW 5.8 mph - N/A   Clear
4:15 AM 39.2 °F 34.2 °F 32.5 °F 77% 30.23 in 10.0 mi SW 6.9 mph - N/A   Clear
4:35 AM 39.2 °F 34.2 °F 32.9 °F 78% 30.23 in 10.0 mi SW 6.9 mph - N/A   Clear
4:55 AM 39.4 °F 35.2 °F 32.9 °F 78% 30.23 in 10.0 mi WSW 5.8 mph - N/A   Clear
5:15 AM 39.4 °F 36.1 °F 32.9 °F 78% 30.23 in 10.0 mi West 4.6 mph - N/A   Clear
5:35 AM 40.1 °F 36.9 °F 33.4 °F 77% 30.23 in 10.0 mi WSW 4.6 mph - N/A   Clear
6:15 AM 40.1 °F 38.0 °F 33.6 °F 78% 30.23 in 10.0 mi SW 3.5 mph - N/A   Clear
6:35 AM 39.6 °F - 33.4 °F 79% 30.23 in 10.0 mi Calm Calm - N/A   Clear
6:55 AM 39.4 °F - 33.8 °F 80% 30.23 in 10.0 mi Calm Calm - N/A   Clear
7:15 AM 39.9 °F - 34.5 °F 81% 30.22 in 10.0 mi Calm Calm - N/A   Clear
7:35 AM 41.2 °F - 35.1 °F 79% 30.23 in 10.0 mi Calm Calm - N/A   Clear
7:55 AM 43.2 °F - 36.1 °F 76% 30.24 in 10.0 mi Calm Calm - N/A   Clear
8:15 AM 46.0 °F - 37.9 °F 73% 30.24 in 10.0 mi Calm Calm - N/A   Clear
8:35 AM 48.9 °F - 39.6 °F 70% 30.24 in 10.0 mi Calm Calm - N/A   Clear
8:55 AM 52.7 °F - 42.3 °F 68% 30.25 in 10.0 mi South 3.5 mph - N/A   Clear
9:15 AM 56.3 °F - 45.0 °F 66% 30.25 in 10.0 mi SSE 5.8 mph - N/A   Clear
9:35 AM 60.8 °F - 47.1 °F 61% 30.25 in 10.0 mi SSE 9.2 mph - N/A   Clear
9:55 AM 64.4 °F - 48.4 °F 56% 30.24 in 10.0 mi SSE 11.5 mph - N/A   Clear
10:15 AM 66.2 °F - 47.8 °F 52% 30.24 in 10.0 mi SSE 18.4 mph 21.9 mph N/A   Clear
10:35 AM 68.5 °F - 47.1 °F 46% 30.23 in 10.0 mi South 20.7 mph - N/A   Clear
10:55 AM 69.4 °F - 44.6 °F 41% 30.22 in 10.0 mi South 19.6 mph 25.3 mph N/A   Clear
11:15 AM 70.9 °F - 45.7 °F 40% 30.21 in 10.0 mi SSE 19.6 mph 24.2 mph N/A   Clear
11:35 AM 71.6 °F - 45.7 °F 39% 30.20 in 10.0 mi SSE 18.4 mph 27.6 mph N/A   Clear
11:55 AM 72.1 °F - 45.7 °F 39% 30.18 in 10.0 mi South 20.7 mph 31.1 mph N/A   Clear
12:15 PM 73.2 °F - 44.8 °F 36% 30.17 in 10.0 mi SSE 20.7 mph 28.8 mph N/A   Clear
12:55 PM 71.2 °F - 45.0 °F 39% 30.15 in 10.0 mi SE 25.3 mph 31.1 mph N/A   Overcast
1:15 PM 70.7 °F - 45.3 °F 40% 30.14 in 10.0 mi SSE 23.0 mph 28.8 mph N/A   Overcast
1:35 PM 70.7 °F - 45.5 °F 40% 30.12 in 10.0 mi SE 26.5 mph - N/A   Overcast
1:55 PM 70.9 °F - 45.5 °F 40% 30.11 in 10.0 mi SSE 24.2 mph 31.1 mph N/A   Overcast
2:15 PM 70.7 °F - 46.0 °F 41% 30.10 in 10.0 mi SSE 27.6 mph 31.1 mph N/A   Overcast
2:35 PM 70.9 °F - 46.8 °F 42% 30.09 in 10.0 mi SSE 26.5 mph 33.4 mph N/A   Overcast
2:55 PM 70.9 °F - 47.1 °F 43% 30.08 in 10.0 mi SSE 26.5 mph 34.5 mph N/A   Overcast
3:15 PM 70.3 °F - 47.5 °F 44% 30.07 in 10.0 mi SE 26.5 mph 33.4 mph N/A   Overcast
3:35 PM 70.0 °F - 48.2 °F 46% 30.06 in 10.0 mi SSE 26.5 mph 32.2 mph N/A   Overcast
3:55 PM 69.3 °F - 48.2 °F 47% 30.06 in 10.0 mi SSE 21.9 mph 34.5 mph N/A   Overcast
4:15 PM 68.9 °F - 49.1 °F 49% 30.06 in 10.0 mi SSE 24.2 mph - N/A   Overcast
4:35 PM 68.9 °F - 49.6 °F 50% 30.05 in 10.0 mi SSE 25.3 mph 32.2 mph N/A   Overcast
4:55 PM 68.4 °F - 50.0 °F 52% 30.05 in 10.0 mi SE 26.5 mph 33.4 mph N/A   Overcast
5:15 PM 68.0 °F - 50.5 °F 54% 30.04 in 10.0 mi SSE 26.5 mph 32.2 mph N/A   Overcast
5:35 PM 68.0 °F - 51.1 °F 55% 30.04 in 10.0 mi SSE 23.0 mph 31.1 mph N/A   Overcast
5:55 PM 67.6 °F - 51.4 °F 56% 30.05 in 10.0 mi SSE 27.6 mph 34.5 mph N/A   Overcast
6:15 PM 67.3 °F - 52.0 °F 58% 30.04 in 10.0 mi SE 25.3 mph 31.1 mph N/A   Overcast
6:35 PM 67.1 °F - 52.3 °F 59% 30.04 in 10.0 mi SSE 21.9 mph 28.8 mph N/A   Overcast
6:55 PM 66.7 °F - 52.9 °F 61% 30.04 in 10.0 mi SSE 20.7 mph 29.9 mph N/A   Overcast
7:15 PM 66.6 °F - 53.6 °F 63% 30.04 in 10.0 mi SSE 20.7 mph - N/A   Overcast
7:35 PM 66.4 °F - 54.0 °F 64% 30.04 in 10.0 mi SSE 18.4 mph 24.2 mph N/A   Overcast
7:55 PM 66.6 °F - 54.5 °F 65% 30.04 in 10.0 mi SSE 17.3 mph - N/A   Overcast
8:15 PM 66.4 °F - 54.7 °F 66% 30.05 in 10.0 mi SSE 19.6 mph 26.5 mph N/A   Overcast
8:35 PM 66.4 °F - 54.9 °F 66% 30.05 in 10.0 mi SSE 19.6 mph 25.3 mph N/A   Overcast
8:55 PM 66.4 °F - 55.0 °F 67% 30.05 in 10.0 mi SSE 18.4 mph 25.3 mph N/A   Overcast
9:15 PM 66.6 °F - 55.4 °F 67% 30.05 in 10.0 mi SSE 19.6 mph 25.3 mph N/A   Overcast
9:35 PM 66.7 °F - 55.6 °F 67% 30.05 in 10.0 mi SSE 20.7 mph 25.3 mph N/A   Overcast
9:55 PM 66.7 °F - 55.8 °F 68% 30.04 in 10.0 mi SSE 19.6 mph 24.2 mph N/A   Overcast
10:15 PM 66.7 °F - 55.8 °F 68% 30.04 in 10.0 mi SSE 20.7 mph 26.5 mph N/A   Overcast
10:35 PM 67.1 °F - 55.9 °F 67% 30.04 in 10.0 mi SSE 20.7 mph 25.3 mph N/A   Overcast
10:55 PM 67.1 °F - 55.9 °F 67% 30.02 in 10.0 mi SSE 21.9 mph 26.5 mph N/A   Overcast
11:15 PM 67.1 °F - 56.3 °F 68% 30.02 in 10.0 mi SSE 17.3 mph 26.5 mph N/A   Overcast
11:35 PM 66.7 °F - 56.5 °F 70% 30.02 in 10.0 mi SSE 20.7 mph 26.5 mph N/A   Overcast
11:55 PM 66.9 °F - 57.2 °F 71% 30.02 in 10.0 mi SSE 18.4 mph 24.2 mph N/A   Overcast